sat.trackr.live / text

‹ back to catalog

STARLINK-3694

NORAD 51957 · 2022-025B

PAYLOAD ACTIVE UNKNOWN

§ Identity

Operator
Country
US
Launch date
2022-03-09
Launch site
AFETR
Launch vehicle
Mass (kg)
RCS (m²)

Purposes: comms

External: N2YO · Heavens-Above · Gunter

§ Orbital elements

Epoch: 2026-05-25T00:18:13.704768Z

Period
94.01 min
Inclination
53.1622°
Eccentricity
0.0001311
Mean motion
15.31699792 rev/d
Perigee alt
469.8 km
Apogee alt
471.6 km
Semi-major
6,848.9 km
B*
-6.1811e-6
RAAN
41.8901°
Arg perigee
98.4525°
Mean anomaly
261.6625°
Rev number
23,252

§ Raw data

STARLINK-36941 51957U 22025B   26145.01265862 -.00000557  00000+0 -61811-5 0  99962 51957  53.1622  41.8901 0001311  98.4525 261.6625 15.31699792232524

JSON: /api/v1/satellites/51957 · /tle

For live sub-satellite position, see the globe view (requires WebGL).

§ Visibility from observer

Set your observer location to see the next 7 days of passes ≥ 10°. The values pass through the URL so the page stays shareable.

No JS? Fill the form by hand. The geolocation button needs JavaScript.